Overview Statistics Trail Chart Weather Telemetry Raw packets
 

This is the latest recevied weather packets stored in our database for station/object IW1CBG-3. If no packets are shown the sender has not sent any weather packets the latest 10 day(s).

<< 33 34 35 36 37 38 >>
Time Temp. Humidity Pressure Rain* Wind** Luminosity Snow
1787859548 21.11° C 96% 1028.4 hPa 0 mm - - -
1787858948 21.67° C 96% 1028.1 hPa 0 mm - - -
1787858348 21.11° C 95% 1028.3 hPa 0 mm - - -
1787857747 21.67° C 95% 1028.4 hPa 0 mm - - -
1787857148 22.22° C 94% 1027.5 hPa 0 mm - - -
1787856547 22.22° C 94% 1027.7 hPa 0 mm - - -
1787855948 22.78° C 92% 1027.4 hPa 0 mm - - -
1787855347 22.78° C 91% 1027.2 hPa 0 mm - - -
1787854747 22.78° C 90% 1027.1 hPa 0 mm - - -
1787854148 23.33° C 90% 1027 hPa 0 mm - - -
1787853547 23.89° C 88% 1026.4 hPa 0 mm - - -
1787852948 23.89° C 88% 1026.2 hPa 0 mm - - -
1787852347 23.89° C 87% 1025.8 hPa 0 mm - - -
1787851747 24.44° C 85% 1025.7 hPa 0 mm - - -
1787851147 25° C 82% 1025.9 hPa 0 mm - - -
1787850547 25° C 82% 1026.2 hPa 0 mm - - -
1787849948 25° C 81% 1025.8 hPa 0 mm - - -
1787849348 25° C 82% 1025.8 hPa 0 mm - - -
1787848748 25.56° C 80% 1025.8 hPa 0 mm - - -
1787848148 25.56° C 79% 1025.4 hPa 0 mm - - -
1787847548 25° C 80% 1025.7 hPa 0 mm - - -
1787846947 25.56° C 78% 1025.4 hPa 0 mm - - -
1787846353 25.56° C 76% 1025.7 hPa 0 mm - - -
1787845749 25.56° C 75% 1025.6 hPa 0 mm - - -
1787845148 25.56° C 75% 1025.6 hPa 0 mm - - -

* Rain latest hour (hover to see other rain measurements)
** Current wind speed in m/s (hover to see current wind gust speed)